Dewpoint
43 43 43 43 44 44 45 45 45 44 44 42 40 47 40 22 19 34 35 43 38 28 22 30 27 26 27 23 22 22 21 19 16 17 16 16 14 18 18 21 21 20 18 17 15 14 16 12 10 10 9 15 21 24 28 29 25 20 19 17 28 32 22 15 8 5 3 13 16 20 19 18 18 20 22 21 20 22 19 16 18 17 17 15 13 14 17
43 43 43 43 43 44 44 44 44 44 44 44 45 44 29 25 30 27 29 42 39 23 17 16 18 24 26 28 24 22 22 19 17 17 19 18 19 21 22 17 14 23 16 19 15 14 18 14 11 14 15 18 23 24 27 28 23 18 25 20 33 16 22 18 8 7 11 14 15 13 17 19 18 17 21 22 19 21 25 25 27 18 17 15 12 10 11
42 42 42 43 43 44 44 44 44 44 45 44 45 35 28 29 36 33 29 36 37 21 29 23 19 28 30 28 24 24 21 22 24 23 20 18 19 21 19 20 18 16 16 16 15 15 11 19 16 20 18 20 22 23 25 25 26 27 30 38 25 17 19 19 11 7 7 8 7 9 11 14 13 22 22 21 16 23 23 16 16 15 20 16 13 12 17
42 42 42 42 43 44 44 43 43 44 44 45 47 39 37 23 19 29 26 29 32 33 36 32 27 26 28 27 29 23 23 22 21 21 20 19 22 22 21 18 19 16 17 19 16 14 18 14 19 13 17 20 19 22 22 24 27 35 34 33 25 23 26 23 19 15 9 12 7 23 17 16 14 16 19 21 20 21 25 20 16 13 16 15 19 19 17
42 42 42 42 42 43 43 43 43 43 44 44 43 38 35 31 27 28 23 30 29 28 27 26 26 25 32 22 30 29 26 24 19 21 24 20 22 23 23 22 22 25 19 24 22 19 18 16 19 19 17 19 20 21 21 20 26 36 29 29 24 24 19 22 24 21 14 13 12 15 17 15 14 14 17 15 20 24 24 17 14 18 17 12 17 19 18
42 41 41 42 42 43 43 42 42 43 44 47 45 30 34 28 32 35 36 31 25 25 27 26 27 25 26 30 32 27 24 23 26 20 19 19 24 25 23 19 19 21 24 27 24 25 21 23 23 25 24 20 20 18 19 18 23 26 21 25 26 24 19 23 25 22 16 16 15 15 15 14 15 14 18 20 20 23 23 24 22 22 17 14 19 22 22
41 41 41 41 42 42 43 42 42 43 44 46 39 31 31 32 32 31 38 32 31 30 30 33 23 26 27 29 29 29 26 26 22 24 26 20 25 19 25 26 18 19 19 22 22 26 22 24 30 28 26 25 25 22 20 18 18 19 25 22 28 25 18 22 18 19 17 14 15 16 15 15 15 19 19 19 22 23 24 25 23 22 22 23 22 23 25
41 41 41 41 41 42 42 42 42 42 44 40 35 35 33 30 32 31 34 33 30 32 32 32 28 27 31 26 32 24 28 28 23 20 24 27 26 21 25 20 19 21 19 22 24 33 33 32 25 32 29 28 26 24 25 20 21 18 23 22 30 21 17 28 22 20 18 16 15 13 15 18 18 17 16 17 18 19 22 24 25 26 25 27 27 27 26
41 40 40 40 41 41 42 42 42 41 41 35 34 32 35 36 37 39 34 26 28 31 29 27 25 23 28 27 30 29 25 27 23 21 20 26 29 27 29 24 25 21 21 27 26 25 28 29 29 29 29 25 25 25 27 18 24 19 22 26 29 25 18 23 21 17 18 15 15 14 15 16 16 18 20 20 20 22 23 22 25 26 25 25 25 23 22
41 41 40 40 40 40 41 41 41 41 40 37 33 32 36 37 39 40 37 26 31 27 28 28 26 23 29 30 28 28 25 22 22 26 20 19 20 24 26 29 26 25 27 27 25 24 24 25 24 22 21 22 20 19 19 17 20 23 22 25 20 22 22 17 16 14 15 13 13 13 17 18 15 17 21 21 21 21 22 21 25 26 27 24 21 20 20
40 40 40 40 40 40 40 40 41 41 38 36 35 34 35 33 34 35 33 24 27 24 24 23 26 29 30 26 27 26 26 23 24 26 23 22 22 21 25 27 27 21 28 26 20 21 24 22 23 22 20 21 20 20 19 18 17 17 23 25 24 22 22 17 17 13 13 13 18 20 15 8 8 26 28 25 23 22 21 21 22 24 26 22 23 24 27
40 40 40 39 39 39 40 41 41 41 38 38 38 35 35 37 35 35 31 19 22 27 23 25 29 31 29 27 28 28 27 27 28 27 28 27 24 24 24 25 27 22 21 21 22 22 23 23 21 22 20 20 19 18 17 18 17 17 17 21 22 24 22 17 16 14 13 15 19 12 10 9 26 24 26 27 25 22 21 22 25 29 29 29 25 22 22
41 40 39 40 40 39 39 40 41 40 39 37 37 34 39 38 36 33 29 25 20 23 22 26 28 27 26 29 28 28 27 27 28 31 27 30 26 25 23 24 26 20 19 22 22 22 21 23 21 18 17 17 17 17 17 18 18 19 19 16 21 20 19 17 15 14 14 12 12 9 8 19 24 23 27 32 23 24 26 25 29 29 28 30 26 29 29
41 40 39 40 40 40 39 39 40 41 40 38 35 35 35 37 35 33 29 24 22 28 28 26 27 29 30 29 28 27 27 28 28 29 29 29 27 24 22 18 18 21 23 24 25 22 22 19 18 17 17 14 19 18 15 14 15 15 19 18 17 22 20 16 13 18 11 12 10 10 16 17 19 20 24 25 24 27 25 18 22 29 29 29 28 28 28
41 40 39 39 39 40 39 39 39 40 40 39 36 34 34 37 36 34 35 32 19 26 29 22 28 29 28 27 26 26 25 28 25 23 23 27 26 23 22 18 20 20 28 27 20 21 20 18 17 14 15 13 13 15 12 10 15 19 20 18 17 19 19 18 14 13 13 10 8 9 9 9 14 28 31 33 35 35 34 26 19 28 26 26 27 26 26
41 41 40 39 40 40 40 39 38 38 40 39 36 34 35 38 38 36 34 27 24 17 28 31 32 31 27 25 26 26 24 24 25 23 24 24 20 19 18 17 22 25 22 17 19 18 17 17 16 13 11 13 12 10 14 10 12 15 19 17 17 20 21 18 15 13 12 13 10 9 8 11 24 26 29 31 29 36 35 24 14 24 24 25 25 25 26
42 41 40 40 39 39 39 39 38 38 39 39 33 33 35 39 37 35 33 27 24 19 28 27 32 32 25 25 29 27 27 24 24 20 18 21 19 17 16 17 27 24 20 21 19 17 15 15 16 11 10 10 11 15 10 10 15 14 16 17 19 21 17 16 13 15 13 13 11 11 13 13 26 28 27 27 30 33 30 15 13 23 23 23 25 24 25
42 42 42 40 40 39 38 38 38 38 39 40 35 33 34 38 39 38 32 26 18 22 29 31 29 26 23 26 26 28 28 28 25 25 19 17 16 16 15 18 18 19 24 18 21 16 15 14 11 13 11 13 14 15 11 13 16 15 13 15 14 18 17 16 14 13 14 15 12 13 15 22 28 26 27 28 34 30 18 13 19 23 22 21 23 25 26
41 42 41 40 40 39 38 38 38 38 39 40 36 35 34 37 38 38 34 28 23 21 26 25 26 30 28 27 30 27 26 29 27 21 19 20 20 19 18 16 24 18 15 19 21 17 13 16 17 14 12 16 18 14 17 15 15 16 16 13 14 15 17 15 16 13 12 11 10 11 13 26 25 23 26 29 27 19 15 20 25 24 22 22 21 22 25
40 41 42 41 40 38 38 38 38 38 39 41 39 33 35 38 39 38 32 28 26 24 29 31 29 26 25 28 24 23 25 27 25 23 18 18 26 22 20 17 19 16 20 17 15 18 15 14 18 20 15 14 18 19 16 17 17 15 15 18 17 16 15 13 11 15 14 14 11 10 9 24 25 25 21 24 18 19 21 23 24 23 23 22 22 23 23
41 41 41 41 40 39 37 37 38 38 40 40 40 36 31 38 40 39 38 34 28 19 25 29 29 27 26 27 31 29 30 29 29 24 23 22 28 27 9 15 17 17 15 19 11 16 16 13 16 16 19 17 19 18 14 18 18 17 16 17 17 22 15 13 13 14 10 10 10 11 18 26 26 24 19 24 20 21 24 24 20 23 23 23 23 23 25
41 40 40 41 40 39 38 37 38 39 40 41 41 36 32 35 38 38 38 36 30 27 30 31 28 28 29 30 31 31 28 28 31 30 30 24 28 23 21 20 18 18 21 18 14 17 17 16 16 12 9 12 17 10 15 12 10 14 19 18 8 17 17 21 15 23 17 14 15 20 21 25 21 24 24 23 24 23 23 23 23 22 21 23 22 23 24
41 40 40 40 39 39 38 37 38 40 41 41 41 37 32 35 36 39 38 30 33 34 33 32 30 28 28 28 28 28 28 30 34 34 33 28 21 24 22 23 23 25 26 22 17 18 17 16 12 17 12 10 14 11 11 11 9 10 11 12 12 16 20 22 19 15 17 17 19 21 18 18 19 19 21 21 23 23 24 24 22 23 23 23 22 23 23
41 41 41 40 39 38 37 37 39 40 41 41 40 38 35 37 38 38 34 34 30 25 26 27 25 21 23 26 25 28 28 30 31 33 35 34 25 19 26 25 24 29 26 30 27 20 17 15 18 18 13 14 18 9 10 10 14 12 15 11 11 15 20 19 15 17 15 13 17 18 18 18 19 18 19 20 20 21 22 24 23 23 24 24 24 24 25
41 41 40 40 39 38 38 38 39 39 41 41 41 41 40 35 37 36 33 27 25 22 16 19 23 24 23 23 24 24 25 27 31 33 33 34 31 25 25 29 32 29 28 29 32 26 20 19 18 20 14 17 16 10 16 12 10 18 13 11 11 14 23 17 16 16 15 17 16 17 17 18 18 17 17 17 20 20 21 21 23 22 24 24 24 24 24
42 42 41 40 39 38 37 38 39 40 41 42 41 38 36 35 39 40 34 32 33 28 18 14 22 28 22 24 22 22 23 24 25 28 31 30 29 32 32 33 32 35 32 31 30 24 19 17 17 15 14 14 20 13 13 17 15 15 14 13 15 18 19 11 16 15 16 16 15 14 16 17 17 18 18 20 20 22 21 25 22 22 22 22 22 23 23
43 43 42 41 40 39 39 39 40 41 41 42 40 38 37 37 40 37 34 32 29 22 18 15 22 19 20 25 22 22 22 23 27 28 27 27 28 31 33 32 31 29 29 27 28 24 19 17 16 17 20 19 24 19 19 19 18 18 17 16 18 17 14 16 17 14 13 12 14 18 15 16 15 18 21 22 23 24 22 23 23 24 25 24 23 21 22
43 43 42 41 40 39 39 39 40 40 41 42 39 38 40 37 39 39 39 37 31 22 20 19 17 23 23 25 20 20 20 21 23 26 25 27 30 30 32 31 31 29 28 25 21 23 20 19 19 23 24 23 23 18 23 21 20 17 15 15 21 14 19 17 14 15 15 16 17 19 19 20 20 21 21 23 25 27 26 26 26 27 26 25 26 26 26
44 43 42 41 40 40 40 39 39 40 42 42 38 37 37 39 39 40 40 40 38 29 26 24 23 24 21 23 21 20 20 26 28 26 27 28 29 32 31 30 29 27 28 26 22 19 16 17 20 19 21 29 21 13 18 13 13 12 12 21 19 22 25 23 20 22 20 19 19 20 20 19 21 23 25 25 27 27 28 28 28 29 29 28 28 28 28
43 43 42 42 41 41 40 39 40 41 43 40 37 33 28 33 37 37 40 41 38 34 25 20 19 18 24 26 26 20 17 19 24 27 24 19 23 24 21 27 28 29 27 23 20 15 16 15 20 23 29 31 22 17 12 10 13 10 19 19 20 21 18 18 20 22 20 22 24 26 25 25 27 26 26 28 30 31 30 31 32 30 30 30 29 29 29
43 43 42 42 41 42 41 41 40 41 43 39 34 25 23 22 34 38 40 42 40 34 26 24 17 22 20 24 27 20 19 20 22 21 23 23 21 20 25 27 27 26 21 19 19 15 18 17 16 22 26 27 22 15 12 11 10 5 12 16 16 17 17 20 24 25 26 26 25 24 25 25 27 26 26 28 30 31 31 31 32 33 32 31 30 31 30
43 43 42 42 41 43 42 41 40 42 41 35 31 31 30 33 37 42 42 41 39 32 24 20 17 14 18 20 24 24 22 26 27 23 23 20 20 22 25 21 25 25 24 17 18 16 15 20 18 19 17 29 24 15 12 12 10 14 15 16 17 18 21 23 23 24 25 25 26 27 27 27 28 29 28 30 30 30 30 31 32 33 34 33 33 33 33
43 43 43 41 41 43 44 43 41 42 38 40 40 40 40 41 42 44 43 40 35 31 31 23 19 19 17 17 25 24 23 30 23 19 18 20 20 19 23 23 25 26 30 24 21 16 24 20 17 14 20 27 19 16 15 12 14 16 16 18 18 20 21 22 24 25 26 27 30 29 29 29 31 32 31 30 29 29 31 31 31 32 32 31 31 31 30
43 44 42 41 41 43 42 43 43 42 41 40 35 32 37 41 42 40 42 39 33 31 26 22 19 14 10 21 19 24 22 19 17 17 14 23 21 20 15 18 19 15 22 20 16 14 18 22 16 12 22 21 24 17 14 15 15 18 18 17 19 22 24 25 26 26 27 28 32 32 32 32 31 30 29 29 28 29 30 30 32 31 30 31 31 32 32
44 43 41 40 40 43 41 39 38 35 31 32 32 37 39 41 42 42 39 35 26 23 23 24 23 11 8 10 9 19 25 24 15 18 15 19 23 17 16 10 10 10 20 22 16 21 10 17 21 14 11 17 16 15 18 16 17 17 17 19 24 27 27 27 26 27 30 31 31 30 29 29 28 28 28 29 29 31 32 31 31 31 32 32 32 32 35
43 42 40 40 41 42 41 38 35 32 31 31 33 37 40 42 41 41 41 39 34 27 23 22 22 10 12 7 7 19 22 20 20 20 16 21 13 22 20 17 6 14 20 19 8 16 8 20 18 9 12 12 13 16 17 18 17 18 21 26 29 29 28 28 28 31 30 30 30 30 29 29 28 28 28 30 30 32 33 32 32 32 32 34 35 36 34
41 40 39 38 39 37 31 31 35 35 34 36 38 41 42 41 39 39 36 35 36 36 28 25 16 14 18 14 18 26 22 12 18 14 14 12 10 22 13 10 6 14 15 12 8 6 15 21 15 10 11 10 18 17 20 19 21 23 26 28 30 31 31 31 32 30 29 29 29 29 29 28 28 29 30 30 30 32 31 31 31 32 32 31 31 31 31
40 39 35 30 30 27 25 28 32 37 39 39 39 38 33 34 25 28 29 28 30 32 28 28 17 22 25 21 14 23 21 12 15 10 10 16 14 11 13 12 12 15 6 4 9 17 15 14 10 8 11 20 19 20 21 22 23 27 30 32 33 33 32 32 31 30 29 28 27 27 27 28 30 30 30 30 32 31 31 31 31 31 31 31 30 31 30
39 36 32 31 28 23 24 31 38 39 38 38 37 30 26 29 27 22 24 27 28 25 27 25 17 21 20 18 15 25 19 14 14 12 9 18 11 9 12 6 14 14 6 4 12 16 7 6 8 9 7 18 17 19 21 22 23 27 32 33 34 34 34 32 33 33 32 31 31 30 31 31 31 30 31 31 31 30 30 30 30 30 31 30 30 30 29
32 30 29 29 26 28 34 38 36 37 37 29 27 25 21 26 19 17 23 21 18 21 23 16 23 23 26 21 17 15 28 21 12 10 11 12 18 9 12 10 11 10 5 4 8 14 7 5 6 6 5 12 14 18 20 22 23 27 31 33 34 34 32 33 34 34 34 33 32 32 32 32 33 33 31 30 30 29 29 30 30 30 29 29 29 29 29
34 32 31 28 31 33 35 35 35 35 29 27 26 24 21 18 20 22 21 15 12 16 25 21 24 22 27 25 23 16 26 27 25 21 17 11 19 17 12 10 13 9 6 6 10 10 8 6 5 4 7 13 16 19 21 22 25 28 32 34 33 33 33 33 33 33 33 32 32 32 32 34 33 32 31 30 30 29 30 30 30 30 29 28 28 28 29
36 34 33 35 36 36 35 33 29 27 24 22 17 13 15 17 19 17 18 13 13 15 17 23 18 20 16 20 20 20 21 26 25 18 13 10 19 13 12 11 12 8 4 10 17 8 7 4 2 4 9 20 21 19 20 22 25 29 31 32 32 32 33 34 33 33 32 32 32 33 33 32 31 31 31 30 30 30 30 30 30 29 29 29 29 28 29
40 37 35 33 31 27 27 22 24 24 17 17 13 11 13 12 13 12 14 16 19 20 23 24 21 21 24 22 20 23 23 26 19 14 13 11 16 18 11 10 10 7 8 15 8 5 5 4 3 4 15 17 21 20 19 24 26 29 31 32 33 34 35 35 34 32 32 32 33 32 32 32 31 31 30 30 29 30 30 30 30 29 29 29 28 29 29
36 36 31 28 24 24 21 14 21 19 17 15 12 10 10 11 12 14 14 13 15 14 19 19 17 17 14 20 18 16 18 24 20 15 12 14 12 12 9 8 8 12 14 8 7 3 3 4 4 9 16 19 19 19 22 26 28 31 32 32 32 33 33 34 33 32 33 34 32 32 31 31 31 31 31 32 30 30 30 30 30 30 29 29 29 29 30
29 27 26 23 17 20 14 10 17 13 11 14 14 11 10 9 11 13 12 20 17 15 18 19 19 21 18 20 19 21 18 13 17 13 12 13 10 9 9 8 11 10 7 5 3 3 7 8 11 14 16 17 20 22 26 27 29 31 32 31 33 33 33 33 33 32 31 32 32 32 32 32 32 32 32 32 32 32 31 30 30 30 29 28 28 28 28
28 25 24 19 16 19 17 12 12 12 11 12 12 11 10 11 13 14 19 21 18 18 19 18 20 20 17 18 16 15 16 15 13 15 12 11 9 8 10 13 12 7 7 5 5 2 0 0 10 12 18 20 25 27 28 28 30 31 30 30 32 33 34 34 32 32 32 32 32 32 32 32 32 32 32 32 32 32 30 29 28 28 28 27 27 26 26
28 27 23 21 18 20 19 14 15 13 12 12 15 17 16 18 20 19 20 21 20 20 20 22 22 21 18 17 16 16 16 15 13 14 13 11 10 10 13 11 7 6 4 3 3 3 5 5 10 19 21 25 27 27 28 28 30 31 31 32 32 33 34 33 33 32 33 33 32 32 32 32 32 32 32 31 31 31 29 28 27 26 26 26 25 23 22
25 27 25 20 19 17 14 17 16 17 16 18 18 21 21 20 20 19 22 22 22 22 22 22 19 18 16 20 19 14 14 15 13 13 13 12 12 10 8 8 6 6 6 5 4 6 6 8 13 15 22 25 27 26 27 29 30 31 31 31 32 33 33 33 33 33 33 33 32 32 32 32 32 32 31 31 30 29 27 25 24 25 24 23 23 22 23
28 26 23 22 21 19 19 23 18 15 17 19 20 20 19 19 18 19 20 22 21 22 23 21 19 18 16 16 14 14 14 15 13 12 13 11 8 6 4 3 4 4 6 6 5 6 9 11 17 23 26 28 27 26 27 29 31 31 32 31 32 33 34 33 33 33 34 34 33 33 32 33 32 30 28 28 27 25 24 24 23 23 23 23 23 22 22
27 26 27 25 23 22 21 21 19 18 16 17 20 18 20 19 19 20 23 23 25 22 23 22 25 18 16 17 14 15 14 13 13 12 11 9 9 8 6 5 6 5 4 5 7 9 11 13 19 21 24 26 28 28 28 31 31 32 32 33 31 34 34 34 33 34 34 34 34 34 33 33 31 29 28 27 25 24 24 23 23 22 23 23 23 22 22
29 27 24 24 21 20 19 18 18 18 18 20 18 19 19 20 20 21 25 24 24 22 20 17 17 17 15 16 15 11 13 14 13 12 11 10 8 8 7 6 7 6 7 11 11 11 16 15 14 15 21 26 26 29 29 30 30 32 32 32 30 32 33 34 34 34 34 34 34 33 33 32 32 30 29 26 24 23 23 23 24 23 23 23 24 23 23
27 24 22 22 23 23 22 21 21 21 20 21 21 21 22 22 23 23 26 23 23 19 17 18 17 16 16 14 15 14 14 12 11 11 10 11 11 9 9 7 8 8 10 11 12 13 14 14 17 21 23 22 24 28 29 31 32 33 32 31 29 29 32 33 33 34 34 33 33 33 33 33 33 31 28 25 23 22 20 21 23 23 23 23 23 24 23